Location: Bittkow
(50.3000°N, 19.0000°E)
Time: 13:51:37
(UTC+00:00)

Resurs 1-4 Rocket - Pass Details

Date: 19 September 2020
Orbit: 800 x 813 km, 98.6° (Epoch: 25 October)

Event Time Altitude Azimuth Distance (km) Brightness Sun altitude
Rises 02:09:05 0° 5° (N) 3,326 5.8 -21.6°
Reaches altitude 10° 02:12:01 10° 348° (NNW) 2,392 4.8 -21.2°
Maximum altitude 02:15:39 19° 305° (NW) 1,825 3.7 -20.7°
Enters shadow 02:15:58 19° 300° (WNW) 1,830 3.7 -20.6°
